{"data":{"norad_id":69719,"epoch":"2026-09-19T20:06:13.070592Z","epoch_age_seconds":78761,"freshness":"FRESH","line1":"1 69719U 26147R   26262.83765128  .00011891  00000+0  36993-3 0  9992","line2":"2 69719  97.2847 299.2298 0000682 123.3226 236.8082 15.33458302 14139","mean_motion":15.33458302,"eccentricity":6.82e-5,"inclination_deg":97.2847,"raan_deg":299.2298,"arg_perigee_deg":123.3226,"mean_anomaly_deg":236.8082,"bstar":0.00036993,"rev_number":1413,"period_min":93.905390066485,"perigee_km":465.03686108224,"apogee_km":465.97033365972,"semimajor_km":6843.640597371,"source":"CELESTRAK","updated_at":"2026-09-20T09:00:44.283892Z"}}